Tracking 28766 objects as of 13-Apr-2024
HD Live streaming from Space Station
objects crossing your sky now

PORCUPINE 1

Track PORCUPINE 1 now!
10-day predictions
PORCUPINE 1 is classified as:


NORAD ID: 1272
Int'l Code: 1965-016H
Perigee: 906.3 km
Apogee: 934.7 km
Inclination: 70.1 °
Period: 103.3 minutes
Semi major axis: 7291 km
RCS: 0.248 m2 (medium)
Launch date: March 9, 1965
Source: United States (US)
Launch site: AIR FORCE WESTERN TEST RANGE (AFWTR)
Your satellite tracking list
Your tracking list is empty




NASA's NSSDC Master Catalog

Two Line Element Set (TLE):
1  1272U 65016H   24104.22226145  .00000008  00000-0  44749-4 0  9995
2  1272  70.0776 138.2927 0019518  84.9861 275.3471 13.94364798  6035
Source of the keplerian elements: AFSPC